Preview of NWS' New Version of Forecast
This preview is not operational and should not be used for support decisions.

Regional Weather Roundup (RWR)

Issued by Gray - Portland, ME (GYX)

                            
000
ASUS41 KGYX 180010
RWRGYX
WEATHER ROUNDUP FOR MAINE AND NEW HAMPSHIRE
NATIONAL WEATHER SERVICE GRAY ME
700 PM EST THU JAN 17 2019

MEZ002-005-006-010-012-015-018-020-021-024-026-027-029-180100-
MAINE
  
CITY           SKY/WX    TMP DP  RH WIND       PRES   REMARKS
PORTLAND       MOCLDY    20   5  52 S7        30.36R                  
6HR MIN TEMP:  19; 6HR MAX TEMP:  23;                                

SANFORD        FAIR      14   5  67 CALM      30.35R                  
BAR HARBOR     FAIR       7  -2  66 CALM      30.40R                  
WISCASSET      FAIR      10   1  67 CALM      30.38S                  
6HR MIN TEMP:  10; 6HR MAX TEMP:  20;                                

ROCKLAND       FAIR       7   0  73 CALM      30.38R                  
FRYEBURG       FAIR      10   0  63 CALM      30.32R                  
6HR MIN TEMP:   9; 6HR MAX TEMP:  23;                                

LEWISTONAUBURN FAIR      11   1  64 CALM      30.35R                  
AUGUSTA        FAIR      11  -6  46 SE3       30.34S                  
6HR MIN TEMP:  11; 6HR MAX TEMP:  17;                                

WATERVILLE     FAIR       8  -6  52 MISG      30.33R                  
BANGOR         FAIR       6  -4  63 CALM      30.38R                  
6HR MIN TEMP:   6; 6HR MAX TEMP:  15;                                

GREENVILLE       N/A      1 -13  51 NW3       30.21R                  
6HR MIN TEMP:   0; 6HR MAX TEMP:   5;                                

MILLINOCKET    FAIR       0  -9  65 SE3       30.34S                  
6HR MIN TEMP:  -1; 6HR MAX TEMP:   8;                                

HOULTON        FAIR     -13 -16  86 CALM      30.32R                  
6HR MIN TEMP: -13; 6HR MAX TEMP:   5;                                

PRESQUE ISLE   FAIR     -14 -20  74 NW7       30.31R                  
6HR MIN TEMP: -14; 6HR MAX TEMP:   6;                                

FRENCHVILLE    FAIR      -3 -15  56 S6        30.21R                  
6HR MIN TEMP:  -3; 6HR MAX TEMP:   0;                                

CARIBOU        FAIR      -7 -15  68 CALM      30.27S                  
6HR MIN TEMP:  -7; 6HR MAX TEMP:   3;                                

$$

NHZ002-005-008-009-011-012-014-180100-
NEW HAMPSHIRE
  
CITY           SKY/WX    TMP DP  RH WIND       PRES   REMARKS
PORTSMOUTH     CLOUDY    19  -4  34 CALM      30.34R                  
ROCHESTER      FAIR      19   0  43 CALM      30.33R                  
6HR MIN TEMP:  18; 6HR MAX TEMP:  23;                                

NASHUA         FAIR      23   0  36 E3        30.33S                  
MANCHESTER     CLOUDY    22  -3  33 NE3       30.32S                  
6HR MIN TEMP:  22; 6HR MAX TEMP:  26;                                

CONCORD        FAIR      16   3  56 CALM      30.32S                  
6HR MIN TEMP:  15; 6HR MAX TEMP:  23;                                

LACONIA        FAIR      13   2  61 CALM      30.31S                  
PLYMOUTH       FAIR      12  -3  51 CALM      30.32S                  
BERLIN         FAIR      -1  -6  79 CALM      30.25R HAZE             
6HR MIN TEMP:  -2; 6HR MAX TEMP:  13;                                

WHITEFIELD     FAIR       1  -4  79 CALM      30.26R                  
6HR MIN TEMP:   0; 6HR MAX TEMP:  14;                                

JAFFREY        FAIR      18   5  57 CALM      30.25S                  
6HR MIN TEMP:  18; 6HR MAX TEMP:  23;                                

KEENE          FAIR      20   7  57 CALM      30.29S                  
LEBANON        FAIR      13   1  59 CALM      30.29S                  
6HR MIN TEMP:  10; 6HR MAX TEMP:  19;                                

MT WASHINGTON  CLOUDY     5  -6  61 W35         N/A  WCI -20          
6HR MIN TEMP:  -8; 6HR MAX TEMP:   4;                                

$$

VTZ005-007-008-180100-
VERMONT
  
CITY           SKY/WX    TMP DP  RH WIND       PRES   REMARKS
ST JOHNSBURY     N/A      7  -2  66 MISG      30.29R                  
MONTPELIER     FAIR       8   0  69 CALM      30.28R                  
BURLINGTON     MOCLDY    11   0  61 E5        30.30S                  
$$

MAZ007-012-024-CTZ003-RIZ002-NYZ038-NYZ072-180100-
SOUTHERN NEW ENGLAND AND NY
  
CITY           SKY/WX    TMP DP  RH WIND       PRES   REMARKS
BOSTON         CLOUDY    27   3  35 SE10      30.35S WCI  17          
WORCESTER      FAIR      23  -6  28 SE3       30.26R                  
NANTUCKET      FAIR      25  15  66 NE5       30.35S                  
PROVIDENCE     CLOUDY    27   9  46 S3        30.35R                  
HARTFORD       CLOUDY    24  -2  32 SE5       30.31S                  
ALBANY         MOCLDY    21  -4  33 N3        30.30S                  
NEW YORK CITY  CLOUDY    31   9  39 S7        30.32R                  
$$

ANZ081-ANZ082-ANZ150-NHZ014-MEZ023>029-180100-
COASTAL MARINE OBSERVATIONS
  
STATION/POSITION TIME  TEMP    WIND        PRES    WAVE
                       AIR SEA DIR/SP/G            HT/PER
                 (UTC) (F)     (DEG/KT/KT) (MB)    (FT/S)
MOUNT DESERT ROC 0000   19     320/  5/  6 1029.0R
MATINICUS ROCK   2300   19     310/  3/  4 1027.9R
ISLE OF SHOALS   2300   25     300/  2/  4 1027.4R
JEFFREYS LEDGE   2338      43                N/A     2/11
$$

.............KEY..............
   WCI - WIND CHILL
   TC  - TEMPERATURE IN CELSIUS
   VSB - VISIBILITY IN MILES
   HX  - HEAT INDEX
   FAIR- INDICATES FEW OR NO CLOUDS BELOW 12,000 FT, WITH NO 
         SIGNIFICANT WEATHER AND/OR OBSTRUCTIONS TO VISIBILITY.